Find Local Weather

World > North America > United States > Ohio

Loveland, Ohio Regional Weather

Lat: 39.27N, Lon: 84.27W
Wx Zone: OHZ077
Feedback
Expires:201805270200;;582456
ASUS41 KCLE 270112
RWRCLE
OHIO REGIONAL WEATHER ROUNDUP
NATIONAL WEATHER SERVICE WILMINGTON, OH
900 PM EDT SAT MAY 26 2018

NOTE: "FAIR" INDICATES FEW OR NO CLOUDS BELOW 12,000 FEET WITH NO
SIGNIFICANT WEATHER AND/OR OBSTRUCTIONS TO VISIBILITY.


OHZ042-051>053-060>062-070>072-077>081-270200-
  SOUTHWEST OHIO
  
CITY           SKY/WX    TMP DP  RH WIND       PRES   REMARKS
CINC-COVINGTON MOCLDY    73  66  78 S8        29.83R                  
CINC-LUNKEN    FAIR      75  69  81 S7        29.83R                  
HAMILTON       FAIR      78  72  81 VRB3      29.82R                  
DAYTON         MOCLDY    70  70 100 SE5       29.84R                  
WRIGHT-PAT AFB MOCLDY    71  69  90 CALM      29.83R                  
DAYTON GENERAL FAIR      72  64  76 S7        29.82R                  
WILMINGTON     MOCLDY    73  69  87 W9G25     29.84R                  
$$


SKY/WX - Weather  TMP - Temperature  DP - Dewpoint  RH - Relative Humidity
WIND - Wind Direction/Speed PRES - Barometric Pressure